STOCKHOLM/ARLANDA current weather conditions

sailwx.info

Wind from 230 at 10 knots

Air temperature 3.0° C
Visibility: greater than 5.4 NM
Dewpoint 1.0° C

Last reported at 2014-Dec-19 18:20 UTC.
Time now 2014-Dec-19 20:15 UTC

Location: N 59°39' E 017°57'.
View on Google Maps.

See reports from other nearby stations

  
Tides and Currents Weather Stations Pressure Air Temp Water Temp Dewpoint Dewpoint Depression Visibility Wind Speed Wind Dir Waves Ship Positions
date/time (UTC)wind fromknots sea level pressurealtimeterstation pressurevisibilityair tempwater tempwave heightnotes
2014-Dec-19 19:20 240 12 5.4 3.0
2014-Dec-19 18:50 240 12 5.4 3.0
2014-Dec-19 18:20 230 10 5.4 3.0
2014-Dec-19 17:50 230 10 5.4 3.0
2014-Dec-19 17:20 220 11 5.4 3.0
2014-Dec-19 16:50 230 15 3.0
2014-Dec-19 16:20 230 13 3.0
2014-Dec-19 15:50 240 15 3.0
2014-Dec-19 15:20 230 14 4.0
2014-Dec-19 14:50 240 15 5.4 4.0
2014-Dec-19 14:20 250 15 5.4 4.0
2014-Dec-19 13:50 240 15 5.4 4.0
2014-Dec-19 13:20 240 15 5.4 5.0
2014-Dec-19 12:50 250 16 5.4 5.0
2014-Dec-19 12:20 260 13 5.4 5.0
2014-Dec-19 11:50 250 15 5.4 5.0
2014-Dec-19 11:20 240 14 5.4 5.0
2014-Dec-19 10:50 250 13 5.4 5.0
2014-Dec-19 10:20 250 11 5.4 5.0
2014-Dec-19 09:50 260 12 5.4 5.0
2014-Dec-19 09:20 250 13 5.4 5.0
2014-Dec-19 08:50 250 14 5.4 5.0
2014-Dec-19 08:20 250 9 5.4 5.0
2014-Dec-19 07:50 220 6 5.4 4.0
2014-Dec-19 07:20 230 8 5.4 4.0
2014-Dec-19 06:50 210 8 2.7 4.0 Drizzle. Mist.
2014-Dec-19 06:20 220 8 0.4 4.0 Fog.
2014-Dec-19 05:50 210 6 0.5 4.0 Mist.
2014-Dec-19 05:20 210 4 0.2 4.0 Fog.
2014-Dec-19 04:50 170 5 0.3 3.0 Light drizzle.
2014-Dec-19 04:20 190 5 0.3 3.0 Light rain.
2014-Dec-19 03:50 180 4 0.3 3.0 Light rain.
2014-Dec-19 03:20 170 4 0.3 3.0 Light rain.
2014-Dec-19 02:50 180 5 0.4 3.0 Light rain.
2014-Dec-19 02:20 160 5 0.4 3.0 Fog.
2014-Dec-19 01:50 170 5 0.5 3.0 Fog.
2014-Dec-19 01:20 180 4 0.6 3.0 Mist.
2014-Dec-19 00:50 170 5 1.6 3.0 Mist.
2014-Dec-19 00:20 170 6 2.4 3.0 Mist.
2014-Dec-18 23:50 170 6 2.4 3.0 Mist.
2014-Dec-18 23:20 170 5 2.4 3.0 Mist.
2014-Dec-18 22:50 170 5 1.6 3.0 Mist.
2014-Dec-18 22:20 180 8 3.2 3.0 Mist.
2014-Dec-18 21:50 170 6 4.3 3.0 Mist.
2014-Dec-18 21:20 180 5 5.4 3.0
2014-Dec-18 20:20 160 7 4.3 3.0 Mist.
2014-Dec-18 19:50 170 7 5.4 3.0
2014-Dec-18 19:20 180 8 5.4 3.0
2014-Dec-18 18:50 190 9 5.4 3.0
2014-Dec-18 18:20 180 8 5.4 3.0
2014-Dec-18 17:50 190 9 5.4 3.0
2014-Dec-18 17:20 190 9 5.4 3.0
2014-Dec-18 16:50 190 9 5.4 3.0
2014-Dec-18 16:20 190 8 5.4 3.0
2014-Dec-18 15:50 180 8 5.4 3.0 Light rain. Mist.
2014-Dec-18 15:20 180 8 3.2 2.0 Light drizzle.
2014-Dec-18 14:50 190 8 3.2 3.0 Mist.
2014-Dec-18 14:20 200 7 3.2 2.0 Mist.
2014-Dec-18 13:50 200 8 3.2 2.0 Mist.
2014-Dec-18 13:20 200 8 4.3 2.0 Mist.
2014-Dec-18 12:50 210 8 2.7 2.0 Mist.
2014-Dec-18 12:20 210 10 3.2 2.0 Mist.
2014-Dec-18 11:50 200 8 3.8 2.0 Mist.
2014-Dec-18 11:20 200 9 4.3 1.0 Mist.
2014-Dec-18 10:50 200 8 3.8 1.0 Mist.
2014-Dec-18 10:20 190 9 1.6 1.0 Light rain snow.
2014-Dec-18 09:50 180 10 1.7 1.0 Light snow.
2014-Dec-18 09:20 180 8 1.9-0.0 Snow.
2014-Dec-18 08:50 180 8 1.1-0.0 Snow.
2014-Dec-18 08:20 180 9 1.1 1.0 Light snow.
2014-Dec-18 07:50 170 9 1.6-0.0 Light snow.
2014-Dec-18 07:20 170 8 2.4-0.0 Light snow.
2014-Dec-18 06:50 160 8 2.7-1.0 Light snow.
2014-Dec-18 06:20 170 8 3.8-1.0 Light snow.
2014-Dec-18 05:50 150 7 5.4-2.0
2014-Dec-18 05:20 160 6 5.4-2.0
2014-Dec-18 04:50 160 5 5.4-3.0
2014-Dec-18 04:20 170 5 5.4-3.0
2014-Dec-18 03:50 170 4 5.4-3.0
2014-Dec-18 03:20 200 5 4.9-3.0 Mist.
2014-Dec-18 02:50 210 4 3.8-3.0 Mist.
2014-Dec-18 02:20 170 5 3.8-5.0 Mist.
2014-Dec-18 01:50 180 4 -5.0
2014-Dec-18 01:20 210 4 -4.0
2014-Dec-18 00:50 180 3 -4.0
2014-Dec-18 00:20 230 4 -4.0
2014-Dec-17 23:50 260 5 -5.0
2014-Dec-17 23:20 240 5 -5.0
2014-Dec-17 22:50 210 5 -4.0
2014-Dec-17 22:20 240 6 -5.0
2014-Dec-17 21:50 240 6 -4.0
2014-Dec-17 21:20 240 5 -5.0
2014-Dec-17 20:50 250 7 -5.0
2014-Dec-17 20:20 250 6 -5.0